Regional Weather Roundup
Issued by NWS

Home | Current Version | Previous Version | Text Only | Print | Product List | Glossary On
Versions: 1 2 3 4 5 6 7 8 9 10 11 12 13 14 15 16 17 18 19 20 21 22 23 24 25 26 27 28 29 30 31 32 33 34 35 36 37 38 39 40 41 42 43 44 45 46 47 48 49 50
000
ASUS44 KBMX 011110
RWRAL

ALABAMA REGIONAL WEATHER ROUNDUP
NATIONAL WEATHER SERVICE BIRMINGHAM AL
600 AM CDT FRI JUL 01 2016

NOTE: "FAIR" INDICATES FEW OR NO CLOUDS BELOW 12,000 FEET
WITH NO SIGNIFICANT WEATHER AND/OR OBSTRUCTIONS TO VISIBILITY.

THE REMARK "TC" DENOTES TEMPERATURE IN DEGREES CELSIUS.

ALZ001>011-014-016>018-020-011200-
NORTH ALABAMA

CITY           SKY/WX    TMP DP  RH WIND       PRES   REMARKS
MUSCLE SHOALS  CLEAR     64  60  87 CALM      30.02R
HUNTSVILLE     PTCLDY    63  58  83 SE3       30.01R
DECATUR        CLEAR     61  58  90 CALM      30.02R
HALEYVILLE     FAIR      60  58  92 CALM      30.05R
GADSDEN        CLEAR     58  57  97 SW3       30.02R
$$

ALZ012-013-022-023-030>036-040>044-011200-
WEST CENTRAL ALABAMA

CITY           SKY/WX    TMP DP  RH WIND       PRES   REMARKS
TUSCALOOSA     CLEAR     61  60  97 CALM      30.01R
$$

ALZ015-024>027-033>036-040>044-011200-
CENTRAL ALABAMA

CITY           SKY/WX    TMP DP  RH WIND       PRES   REMARKS
BIRMINGHAM     PTCLDY    64  59  83 CALM      30.04R
MONTGOMERY     FOG       73  70  90 CALM      30.00R VSB 1/4
SHELBY CO ARPT CLEAR     63  60  90 CALM      30.01R
MAXWELL AFB    MOCLDY    74  73  98 CALM      29.99R
GREENVILLE     CLOUDY    74  71  91 CALM      30.01R
$$

ALZ019-021-028-029-037-038-045>048-011200-
EAST CENTRAL ALABAMA

CITY           SKY/WX    TMP DP  RH WIND       PRES   REMARKS
ANNISTON       CLEAR     64  59  83 E3        30.01R
ALEXANDER CITY CLOUDY    73  73 100 SW5       30.01R FOG
AUBURN         CLOUDY    73  72  96 SW7       30.03R
$$

ALZ051>064-011200-
SOUTHWEST ALABAMA

CITY           SKY/WX    TMP DP  RH WIND       PRES   REMARKS
MOBILE         PTCLDY    73  71  93 CALM      29.99S
BROOKLEY FIELD PTCLDY    76  75  97 CALM      30.00R
EVERGREEN      PTCLDY    71  69  93 CALM      30.01R
$$

ALZ049-050-065>069-011200-
SOUTHEAST ALABAMA

CITY           SKY/WX    TMP DP  RH WIND       PRES   REMARKS
DOTHAN         CLEAR     73  72  96 S3        30.04R
OZARK          PTCLDY    73  73 100 S3        30.00R
TROY           CLOUDY    73  73 100 S5        30.02R FOG
EUFAULA        MOCLDY    74  72  93 CALM      30.01R
$$



USA.gov is the U.S. government's official web portal to all federal, state and local government web resources and services.